Weather History for Beaufort, NC

Change the Weather History Date:

Thursday, November 6, 2014

  Actual Average Record
Temperature  
Mean Temperature 65 °F -  
Max Temperature 71 °F 67 °F 79 °F (1948)
Min Temperature 57 °F 47 °F 31 °F (1976)
Growing Degree Days 15 (Base 50)    
Moisture  
Dew Point 62 °F    
Average Humidity 81    
Maximum Humidity 93    
Minimum Humidity 67    
Precipitation  
Precipitation 0.00 in - - ()
Sea Level Pressure  
Sea Level Pressure 29.96 in    
Wind  
Wind Speed 13 mph (SW)    
Max Wind Speed 26 mph    
Max Gust Speed 34 mph    
Visibility 10 miles    
Events      
Averages and records for this station are not official NWS values.
T = Trace of Precipitation, MM = Missing Value Source: NWS Daily Summary

Daily Weather History Graph

Daily Weather History Graph

Search for Another Location

Airport:

Trip Planner

Search our weather history database for the weather conditions in past years. The results will help you decide how hot, cold, wet, or windy it might be!

Date:

Astronomy

Nov. 06, 2014 Rise Set
Actual Time 6:31 AM EST 5:08 PM EST
Civil Twilight 6:05 AM EST 5:34 PM EST
Nautical Twilight 5:35 AM EST 6:04 PM EST
Astronomical Twilight 5:05 AM EST 6:34 PM EST
Moon 5:13 PM EST (11/6) 6:02 AM EST (11/6)
Length of Visible Light 11h 28m
Length of Day
10h 36m
Full, 100% of the Moon is Illuminated
Nov 6
Full
Nov 6
Full
Nov 14
Last Quarter
Nov 22
New
Nov 29
First Quarter

Hourly Weather History & Observations

Time (EST) Temp. Dew Point Humidity Pressure Visibility Wind Dir Wind Speed Gust Speed Precip Events Conditions
12:58 AM 64.9 °F 61.0 °F 87% 30.18 in 10.0 mi SSW 8.1 mph - N/A   Clear
1:58 AM 64.9 °F 63.0 °F 93% 30.16 in 10.0 mi SSW 6.9 mph - N/A   Clear
2:58 AM 66.9 °F 63.0 °F 87% 30.13 in 10.0 mi SSW 10.4 mph - N/A   Clear
3:58 AM 66.9 °F 63.0 °F 87% 30.12 in 10.0 mi SW 9.2 mph - N/A   Clear
4:58 AM 66.9 °F 63.0 °F 87% 30.11 in 10.0 mi SW 10.4 mph - N/A   Clear
5:58 AM 68.0 °F 63.0 °F 84% 30.10 in 10.0 mi SSW 12.7 mph - N/A   Clear
6:58 AM 68.0 °F 63.0 °F 84% 30.08 in 10.0 mi SSW 11.5 mph - N/A   Clear
7:58 AM 69.1 °F 63.0 °F 81% 30.08 in 10.0 mi SSW 12.7 mph - N/A   Clear
8:58 AM 70.0 °F 63.0 °F 78% 30.08 in 10.0 mi SW 13.8 mph - N/A   Clear
9:58 AM 70.0 °F 64.0 °F 81% 30.06 in 10.0 mi SSW 15.0 mph - N/A   Clear
10:58 AM 71.1 °F 64.0 °F 78% 30.03 in 10.0 mi SSW 16.1 mph - N/A   Clear
11:58 AM 71.1 °F 64.0 °F 78% 29.99 in 10.0 mi SSW 15.0 mph - N/A   Clear
12:58 PM 71.1 °F 64.0 °F 78% 29.94 in 10.0 mi SSW 15.0 mph - N/A   Clear
1:58 PM 71.1 °F 64.0 °F 78% 29.91 in 10.0 mi SSW 15.0 mph - N/A   Clear
2:58 PM 71.1 °F 64.0 °F 78% 29.87 in 10.0 mi SSW 17.3 mph - N/A   Clear
3:58 PM 70.0 °F 64.0 °F 81% 29.86 in 10.0 mi SW 16.1 mph - N/A   Clear
5:58 PM 69.1 °F 63.0 °F 81% 29.81 in 10.0 mi SSW 18.4 mph 26.5 mph N/A   Scattered Clouds
6:58 PM 69.1 °F 63.0 °F 81% 29.80 in 10.0 mi SW 19.6 mph 28.8 mph N/A   Clear
7:58 PM 69.1 °F 63.0 °F 81% 29.77 in 10.0 mi SSW 23.0 mph 29.9 mph N/A   Clear
8:58 PM 69.1 °F 63.0 °F 81% 29.77 in 10.0 mi SW 21.9 mph 26.5 mph N/A   Mostly Cloudy
9:58 PM 69.1 °F 63.0 °F 81% 29.76 in 10.0 mi WSW 19.6 mph 28.8 mph N/A   Overcast
10:58 PM 68.0 °F 63.0 °F 84% 29.75 in 10.0 mi West 20.7 mph 28.8 mph 0.00 in   Overcast
11:27 PM 59.0 °F 48.0 °F 67% 29.79 in 10.0 mi NNW 23.0 mph 34.5 mph 0.00 in   Overcast
11:58 PM 57.0 °F 46.0 °F 67% 29.78 in 10.0 mi NNW 26.5 mph 33.4 mph 0.00 in   Mostly Cloudy